DW0664 Weather Reports


Display with metric or nautical units.
time (UTC)temp
F
wind
direction
speed
MPH
gust
MPH
rain 1hr
in
rain 24hr
in
rain mn
in
humidity
%
barometer
mb
20260506150902 80 67 0.0 1.0 0.00 0.00 0.00 85 1012.7
20260506150358 80 67 0.0 0.0 0.00 0.00 0.00 85 1012.4
20260506145855 79 57 0.0 3.0 0.00 0.00 0.00 86 1012.5
20260506145351 79 73 1.0 1.0 0.00 0.00 0.00 86 1012.4
20260506144849 79 77 0.0 1.0 0.00 0.00 0.00 87 1012.4
20260506144345 78 71 0.0 1.0 0.00 0.00 0.00 87 1012.6
20260506143844 78 75 0.0 1.0 0.00 0.00 0.00 88 1012.5
20260506143341 78 81 0.0 1.0 0.00 0.00 0.00 88 1012.7
20260506142839 78 70 0.0 1.0 0.00 0.00 0.00 88 1012.6
20260506142337 78 68 0.0 0.0 0.00 0.00 0.00 89 1012.4
20260506141835 78 69 0.0 0.0 0.00 0.00 0.00 89 1012.3
20260506141332 77 73 0.0 1.0 0.00 0.00 0.00 89 1012.0
20260506140830 77 76 1.0 2.0 0.00 0.00 0.00 89 1012.1
20260506140327 77 94 0.0 2.0 0.00 0.00 0.00 90 1011.8
20260506135824 77 82 1.0 2.0 0.00 0.00 0.00 90 1011.8
20260506135320 77 82 2.0 3.0 0.00 0.00 0.00 90 1011.9
20260506134817 77 77 0.0 1.0 0.00 0.00 0.00 91 1011.9
20260506134313 76 81 0.0 0.0 0.00 0.00 0.00 91 1011.9
20260506133810 76 67 0.0 2.0 0.00 0.00 0.00 91 1011.9
20260506133307 76 82 1.0 4.0 0.00 0.00 0.00 92 1011.8
20260506132804 76 76 0.0 1.0 0.00 0.00 0.00 92 1011.8
20260506132301 76 65 0.0 1.0 0.00 0.00 0.00 93 1011.6
20260506131759 76 70 0.0 1.0 0.00 0.00 0.00 93 1011.7
20260506131255 76 98 0.0 1.0 0.00 0.00 0.00 93 1011.8
20260506130752 76 76 0.0 0.0 0.00 0.00 0.00 93 1011.6
20260506130249 76 85 0.0 1.0 0.00 0.00 0.00 93 1011.9
20260506125747 76 70 0.0 1.0 0.00 0.00 0.00 93 1011.8
20260506125244 76 115 1.0 2.0 0.00 0.00 0.00 93 1011.7
20260506124743 76 71 0.0 0.0 0.00 0.00 0.00 93 1011.6
20260506124240 75 70 0.0 0.0 0.00 0.00 0.00 93 1011.6
20260506123737 75 71 0.0 1.0 0.00 0.00 0.00 93 1011.5
20260506123236 75 84 0.0 1.0 0.00 0.00 0.00 93 1011.6
20260506122732 75 67 0.0 1.0 0.00 0.00 0.00 94 1011.5
20260506122229 75 68 0.0 0.0 0.00 0.00 0.00 94 1011.8
20260506121728 75 69 0.0 2.0 0.00 0.00 0.00 94 1011.6
20260506121224 75 70 0.0 0.0 0.00 0.00 0.00 94 1011.7
20260506120722 75 59 0.0 0.0 0.00 0.00 0.00 94 1011.6
20260506120219 75 69 0.0 0.0 0.00 0.00 0.00 94 1011.6
20260506115717 75 69 0.0 0.0 0.00 0.00 0.00 94 1011.6
20260506115215 75 70 0.0 0.0 0.00 0.00 0.00 94 1011.5
20260506114712 75 68 0.0 0.0 0.00 0.00 0.00 94 1011.3
20260506114210 75 69 0.0 0.0 0.00 0.00 0.00 94 1011.4
20260506113708 75 70 0.0 0.0 0.00 0.00 0.00 94 1011.4
20260506113205 75 72 0.0 0.0 0.00 0.00 0.00 94 1011.3
20260506112701 75 67 0.0 0.0 0.00 0.00 0.00 93 1011.4
20260506112159 75 71 0.0 0.0 0.00 0.00 0.00 93 1011.3
20260506111656 75 70 0.0 0.0 0.00 0.00 0.00 93 1011.3
20260506111154 75 69 0.0 0.0 0.00 0.00 0.00 93 1011.1
20260506110651 75 69 0.0 2.0 0.00 0.00 0.00 93 1011.1
20260506110148 75 61 0.0 0.0 0.00 0.00 0.00 93 1011.1
20260506105645 75 58 0.0 2.0 0.00 0.00 0.00 93 1011.0
20260506105141 75 90 0.0 1.0 0.00 0.00 0.00 93 1010.9
20260506104640 75 78 0.0 1.0 0.00 0.00 0.00 93 1010.9
20260506104137 75 69 0.0 0.0 0.00 0.00 0.00 93 1010.7
20260506103634 75 77 1.0 1.0 0.00 0.00 0.00 92 1010.8
20260506103131 75 70 0.0 0.0 0.00 0.00 0.00 92 1010.7
20260506102629 75 81 0.0 1.0 0.00 0.00 0.00 92 1010.7
20260506102126 75 76 0.0 1.0 0.00 0.00 0.00 93 1010.8
20260506101623 75 69 0.0 0.0 0.00 0.00 0.00 93 1010.5
20260506101120 75 69 0.0 0.0 0.00 0.00 0.00 92 1010.4
20260506100618 75 71 0.0 1.0 0.00 0.00 0.00 92 1010.5
20260506100116 75 75 1.0 1.0 0.00 0.00 0.00 92 1010.4
20260506095615 75 76 0.0 1.0 0.00 0.00 0.00 92 1010.4
20260506095111 75 55 0.0 3.0 0.00 0.00 0.00 92 1010.3
20260506094608 75 76 0.0 1.0 0.00 0.00 0.00 92 1010.0
20260506094106 75 85 0.0 1.0 0.00 0.00 0.00 92 1010.3
20260506093604 75 111 0.0 0.0 0.00 0.00 0.00 93 1010.4
20260506093101 75 74 0.0 1.0 0.00 0.00 0.00 92 1010.4
20260506092559 75 52 0.0 0.0 0.00 0.00 0.00 92 1010.2
20260506092055 75 73 0.0 1.0 0.00 0.00 0.00 92 1010.3
20260506091554 75 67 0.0 1.0 0.00 0.00 0.00 92 1010.3
20260506091051 75 78 0.0 1.0 0.00 0.00 0.00 92 1010.3
20260506090549 75 72 0.0 0.0 0.00 0.00 0.00 92 1010.2
20260506090045 75 69 0.0 1.0 0.00 0.00 0.00 92 1010.2
20260506085542 75 76 0.0 1.0 0.00 0.00 0.00 92 1010.1
20260506085038 75 68 0.0 1.0 0.00 0.00 0.00 92 1010.3
20260506084535 75 78 1.0 1.0 0.00 0.00 0.00 92 1010.1
20260506084031 75 65 0.0 1.0 0.00 0.00 0.00 92 1010.1
20260506083529 75 98 1.0 1.0 0.00 0.00 0.00 92 1010.0
20260506083026 75 75 1.0 1.0 0.00 0.00 0.00 92 1010.1
20260506082523 75 101 2.0 4.0 0.00 0.00 0.00 92 1010.0
20260506082018 75 58 1.0 1.0 0.00 0.00 0.00 92 1010.0
20260506081517 75 82 2.0 3.0 0.00 0.00 0.00 92 1010.2
20260506081014 75 90 1.0 1.0 0.00 0.00 0.00 92 1010.0
20260506080511 75 76 1.0 3.0 0.00 0.00 0.00 92 1009.9
20260506073455 75 81 1.0 1.0 0.00 0.00 0.00 92 1010.3
20260506072952 75 118 2.0 4.0 0.00 0.00 0.00 92 1010.3
20260506072449 75 127 3.0 4.0 0.00 0.00 0.00 93 1010.3
20260506071947 75 95 2.0 4.0 0.00 0.00 0.00 93 1010.5
20260506071445 75 97 1.0 8.0 0.00 0.00 0.00 93 1010.4
20260506070941 75 97 3.0 8.0 0.00 0.00 0.00 93 1010.2
20260506070438 75 66 1.0 4.0 0.00 0.00 0.00 93 1010.1
20260506062416 75 87 1.0 2.0 0.00 0.00 0.00 92 1010.4
20260506061912 75 92 4.0 8.0 0.00 0.00 0.00 92 1010.5
20260506061408 75 134 1.0 3.0 0.00 0.00 0.00 92 1010.5
20260506060906 75 59 2.0 8.0 0.00 0.00 0.00 92 1010.7
20260506060404 75 111 3.0 6.0 0.00 0.00 0.00 92 1010.8
20260506051336 76 109 2.0 7.0 0.00 0.00 0.00 90 1010.6
20260506050834 76 118 2.0 4.0 0.00 0.00 0.00 90 1010.5
20260506050331 76 112 0.0 3.0 0.00 0.00 0.00 90 1010.6
20260506044821 76 115 3.0 6.0 0.00 0.00 0.00 89 1010.4
20260506044319 76 87 1.0 6.0 0.00 0.00 0.00 89 1010.6
20260506043816 76 94 4.0 4.0 0.00 0.00 0.00 89 1010.4
20260506043313 76 114 2.0 3.0 0.00 0.00 0.00 89 1010.5
20260506042812 77 190 1.0 2.0 0.00 0.00 0.00 89 1010.4
20260506042310 77 91 2.0 3.0 0.00 0.00 0.00 88 1010.5
20260506041808 77 72 0.0 2.0 0.00 0.00 0.00 88 1010.5
20260506041305 77 93 1.0 3.0 0.00 0.00 0.00 88 1010.4
20260506040802 77 67 1.0 6.0 0.00 0.00 0.00 88 1010.4
20260506040259 77 66 1.0 3.0 0.00 0.00 0.00 88 1010.3
20260506035756 77 102 1.0 3.0 0.00 0.00 0.00 87 1010.3
20260506035253 77 125 1.0 3.0 0.00 0.00 0.00 87 1010.0
20260506034750 77 165 2.0 3.0 0.00 0.00 0.00 86 1009.8
20260506034247 77 152 4.0 7.0 0.00 0.00 0.00 86 1010.0
20260506033744 77 125 1.0 4.0 0.00 0.00 0.00 86 1009.8
20260506033241 77 196 1.0 2.0 0.00 0.00 0.00 86 1009.9
20260506032738 77 155 2.0 3.0 0.00 0.00 0.00 86 1009.7
20260506032235 77 73 1.0 1.0 0.00 0.00 0.00 85 1009.8
20260506031732 78 144 8.0 11.0 0.00 0.00 0.00 85 1009.7
20260506031229 78 62 3.0 4.0 0.00 0.00 0.00 85 1009.6
20260506030728 78 98 1.0 4.0 0.00 0.00 0.00 84 1009.5
20260506030225 78 111 1.0 3.0 0.00 0.00 0.00 84 1009.4
20260506025721 78 66 1.0 2.0 0.00 0.00 0.00 84 1009.6
20260506025217 78 111 2.0 4.0 0.00 0.00 0.00 84 1009.4
20260506024714 78 104 3.0 6.0 0.00 0.00 0.00 84 1009.3
20260506024211 78 169 3.0 4.0 0.00 0.00 0.00 84 1009.3
20260506023708 78 61 2.0 4.0 0.00 0.00 0.00 84 1009.3
20260506023205 78 123 1.0 2.0 0.00 0.00 0.00 84 1009.0
20260506022702 78 113 2.0 2.0 0.00 0.00 0.00 84 1009.1
20260506022159 78 89 1.0 2.0 0.00 0.00 0.00 84 1009.2
20260506021657 78 77 2.0 3.0 0.00 0.00 0.00 84 1009.0
20260506021154 78 79 1.0 2.0 0.00 0.00 0.00 84 1009.1
20260506020651 78 134 1.0 3.0 0.00 0.00 0.00 84 1009.1
20260506020149 78 86 1.0 2.0 0.00 0.00 0.00 84 1008.9
20260506015646 78 82 1.0 4.0 0.00 0.00 0.00 83 1009.1
20260506015143 78 72 0.0 1.0 0.00 0.00 0.00 83 1009.2
20260506014641 78 70 0.0 0.0 0.00 0.00 0.00 83 1008.9
20260506014136 78 70 0.0 2.0 0.00 0.00 0.00 83 1008.9
20260506013634 78 67 1.0 1.0 0.00 0.00 0.00 83 1009.0
20260506013131 79 91 0.0 3.0 0.00 0.00 0.00 83 1009.0
20260506012627 79 105 0.0 2.0 0.00 0.00 0.00 82 1008.5
20260506012124 79 72 0.0 1.0 0.00 0.00 0.00 82 1008.6
20260506011622 79 81 0.0 1.0 0.00 0.00 0.00 81 1008.4
20260506011117 79 59 0.0 2.0 0.00 0.00 0.00 81 1008.3
20260506010611 80 73 1.0 3.0 0.00 0.00 0.00 81 1008.1
20260506010107 80 75 1.0 7.0 0.00 0.00 0.00 80 1008.1
20260506005604 80 198 2.0 7.0 0.00 0.00 0.00 80 1007.8
20260506005100 80 170 0.0 3.0 0.00 0.00 0.00 80 1008.1
20260506004558 80 76 1.0 4.0 0.00 0.00 0.00 80 1007.9
20260506004054 80 83 0.0 2.0 0.00 0.00 0.00 79 1007.9
20260506003551 80 93 1.0 4.0 0.00 0.00 0.00 79 1007.9
20260506003047 81 90 0.0 3.0 0.00 0.00 0.00 78 1008.0
20260506002543 81 109 1.0 4.0 0.00 0.00 0.00 78 1007.8
20260506002039 81 144 2.0 4.0 0.00 0.00 0.00 78 1007.8
20260506001535 81 102 2.0 4.0 0.00 0.00 0.00 77 1007.9
20260506001033 82 120 1.0 2.0 0.00 0.00 0.00 77 1008.0
20260506000530 82 22 4.0 6.0 0.00 0.00 0.00 77 1008.1
20260506000028 82 84 5.0 9.0 0.00 0.00 0.00 77 1008.3
20260505235526 82 78 0.0 2.0 0.00 0.00 0.00 77 1007.8
20260505235022 82 88 1.0 3.0 0.00 0.00 0.00 76 1007.9
20260505234519 82 43 1.0 3.0 0.00 0.00 0.00 76 1007.9
20260505234016 82 104 1.0 4.0 0.00 0.00 0.00 75 1007.8
20260505233514 83 84 2.0 4.0 0.00 0.00 0.00 75 1007.9
20260505233011 83 54 2.0 2.0 0.00 0.00 0.00 75 1007.8
20260505232509 83 82 1.0 3.0 0.00 0.00 0.00 74 1007.8
20260505232006 84 80 3.0 6.0 0.00 0.00 0.00 73 1007.7
20260505231503 83 94 1.0 3.0 0.00 0.00 0.00 74 1007.9
20260505231002 83 75 4.0 8.0 0.00 0.00 0.00 74 1007.7
20260505230459 84 144 2.0 4.0 0.00 0.00 0.00 73 1007.6
20260505225955 84 106 1.0 2.0 0.00 0.00 0.00 73 1007.6
20260505225452 85 152 3.0 3.0 0.00 0.00 0.00 71 1007.9
20260505224948 85 78 1.0 3.0 0.00 0.00 0.00 72 1007.9
20260505224445 85 71 0.0 3.0 0.00 0.00 0.00 71 1008.0
20260505223942 85 351 1.0 3.0 0.00 0.00 0.00 71 1007.9
20260505223439 85 74 1.0 2.0 0.00 0.00 0.00 71 1008.0
20260505222935 85 57 0.0 2.0 0.00 0.00 0.00 72 1007.9
20260505222432 85 96 1.0 3.0 0.00 0.00 0.00 72 1008.0
20260505221928 86 60 4.0 6.0 0.00 0.00 0.00 71 1007.8
20260505221425 86 80 1.0 3.0 0.00 0.00 0.00 69 1007.8
20260505220922 86 76 2.0 3.0 0.00 0.00 0.00 69 1008.0
20260505220419 86 120 2.0 2.0 0.00 0.00 0.00 70 1007.9
20260505215917 86 147 2.0 3.0 0.00 0.00 0.00 69 1007.8
20260505215415 86 80 0.0 1.0 0.00 0.00 0.00 70 1008.0
20260505214913 87 261 1.0 2.0 0.00 0.00 0.00 70 1008.2
20260505214410 86 75 2.0 2.0 0.00 0.00 0.00 70 1008.0
20260505213907 85 70 0.0 3.0 0.00 0.00 0.00 72 1008.0
20260505213405 84 109 1.0 3.0 0.00 0.00 0.00 72 1008.1
20260505212901 85 106 3.0 7.0 0.00 0.00 0.00 71 1008.3
20260505212358 86 143 3.0 4.0 0.00 0.00 0.00 70 1008.3
20260505211854 86 11 1.0 1.0 0.00 0.00 0.00 68 1008.1
20260505211351 86 97 2.0 4.0 0.00 0.00 0.00 68 1008.2
20260505210848 86 91 1.0 4.0 0.00 0.00 0.00 69 1008.5
20260505210345 85 79 1.0 6.0 0.00 0.00 0.00 72 1008.5
20260505205841 85 81 2.0 3.0 0.00 0.00 0.00 71 1008.8
20260505205340 85 72 1.0 3.0 0.00 0.00 0.00 71 1008.7
20260505204837 86 86 2.0 3.0 0.00 0.00 0.00 69 1008.8
20260505204334 88 225 4.0 4.0 0.00 0.00 0.00 67 1008.8
20260505203831 87 12 1.0 1.0 0.00 0.00 0.00 69 1009.0
20260505203328 86 251 1.0 2.0 0.00 0.00 0.00 70 1008.9
20260505202824 85 67 0.0 3.0 0.00 0.00 0.00 72 1009.1
20260505202320 85 71 0.0 2.0 0.00 0.00 0.00 71 1009.1
20260505201817 85 225 1.0 2.0 0.00 0.00 0.00 71 1009.1
20260505201315 86 77 1.0 4.0 0.00 0.00 0.00 70 1009.2
20260505200813 87 94 1.0 2.0 0.00 0.00 0.00 68 1009.4
20260505200309 88 72 1.0 1.0 0.00 0.00 0.00 69 1009.4
20260505195804 87 53 1.0 2.0 0.00 0.00 0.00 68 1009.5
20260505195305 86 78 1.0 7.0 0.00 0.00 0.00 69 1009.4
20260505194759 87 83 2.0 2.0 0.00 0.00 0.00 68 1009.6
20260505194256 86 168 2.0 3.0 0.00 0.00 0.00 71 1009.7
20260505193756 86 181 1.0 3.0 0.00 0.00 0.00 70 1009.8
20260505193254 85 49 1.0 4.0 0.00 0.00 0.00 71 1009.7
20260505192752 84 89 1.0 2.0 0.00 0.00 0.00 72 1009.9
20260505192250 85 65 0.0 2.0 0.00 0.00 0.00 72 1009.9
20260505191748 84 89 2.0 3.0 0.00 0.00 0.00 72 1009.9
20260505191246 84 100 1.0 2.0 0.00 0.00 0.00 74 1010.1
20260505190742 83 110 1.0 3.0 0.00 0.00 0.00 74 1010.0
20260505190237 84 29 2.0 4.0 0.00 0.00 0.00 73 1009.9
20260505185733 84 80 1.0 3.0 0.00 0.00 0.00 73 1010.0
20260505185230 84 134 2.0 3.0 0.00 0.00 0.00 73 1009.9
20260505184726 84 100 1.0 4.0 0.00 0.00 0.00 73 1010.0
20260505184224 83 19 1.0 2.0 0.00 0.00 0.00 74 1010.0
20260505183720 84 18 0.0 1.0 0.00 0.00 0.00 73 1010.0
20260505183218 84 304 2.0 3.0 0.00 0.00 0.00 71 1009.9
20260505182714 85 72 1.0 2.0 0.00 0.00 0.00 71 1010.0
20260505182211 84 223 1.0 4.0 0.00 0.00 0.00 73 1009.9
20260505181707 84 41 1.0 2.0 0.00 0.00 0.00 72 1010.1
20260505181205 84 76 2.0 9.0 0.00 0.00 0.00 71 1010.2
20260505180701 82 18 1.0 8.0 0.00 0.00 0.00 74 1010.1
20260505180158 83 292 2.0 4.0 0.00 0.00 0.00 73 1010.0
20260505175654 83 113 4.0 6.0 0.00 0.00 0.00 74 1010.3
20260505175151 83 89 0.0 2.0 0.00 0.00 0.00 74 1010.2
20260505174647 82 75 1.0 3.0 0.00 0.00 0.00 76 1010.3
20260505174143 82 297 1.0 3.0 0.00 0.00 0.00 77 1010.4
20260505173640 81 129 2.0 2.0 0.00 0.00 0.00 77 1010.4
20260505173137 82 108 1.0 2.0 0.00 0.00 0.00 77 1010.4
20260505172635 81 34 1.0 2.0 0.00 0.00 0.00 78 1010.7
20260505172131 81 318 3.0 4.0 0.00 0.00 0.00 77 1010.5
20260505171626 81 119 1.0 3.0 0.00 0.00 0.00 79 1010.6
20260505171123 80 83 2.0 7.0 0.00 0.00 0.00 80 1010.7
20260505170621 81 129 2.0 3.0 0.00 0.00 0.00 79 1010.7
20260505170117 81 66 0.0 2.0 0.00 0.00 0.00 79 1010.8
20260505165611 81 93 0.0 3.0 0.00 0.00 0.00 80 1010.6
20260505165108 80 71 1.0 2.0 0.00 0.00 0.00 81 1010.9
20260505164604 79 54 0.0 2.0 0.00 0.00 0.00 84 1010.5
20260505164102 78 73 0.0 3.0 0.00 0.00 0.00 84 1010.7
20260505163600 78 93 0.0 3.0 0.00 0.00 0.00 83 1010.9
20260505163057 79 83 2.0 4.0 0.00 0.00 0.00 83 1010.9
20260505162555 78 77 0.0 2.0 0.00 0.00 0.00 84 1010.9
20260505162052 78 86 1.0 3.0 0.00 0.00 0.00 84 1011.1
20260505161549 77 74 0.0 1.0 0.00 0.00 0.00 85 1010.9
20260505161047 77 99 0.0 1.0 0.00 0.00 0.00 85 1011.0
20260505160544 77 1 1.0 3.0 0.00 0.00 0.00 85 1010.9
20260505153021 75 52 1.0 2.0 0.00 0.00 0.00 90 1011.1
20260505152518 75 172 1.0 2.0 0.00 0.00 0.00 89 1010.9
20260505152013 74 74 2.0 2.0 0.00 0.00 0.00 90 1010.9
20260505151508 74 108 0.0 1.0 0.00 0.00 0.00 90 1010.9